Phoenix Deer Valley, AZ

4:19 AM MST on July 26, 2017 (GMT -0700)
Phoenix-Deer Valley Municipal

Weather History for KDVT - January, 2014

Change the Weather History Date:

Friday, January 3, 2014

  Actual Average Record
Temperature  
Mean Temperature 60 °F -  
Max Temperature 71 °F 62 °F 73 °F (2001)
Min Temperature 48 °F 42 °F 28 °F (2015)
Degree Days  
Heating Degree Days 6    
Growing Degree Days 10 (Base 50)    
Moisture  
Dew Point 27 °F    
Average Humidity 31    
Maximum Humidity 52    
Minimum Humidity 17    
Precipitation  
Precipitation 0.00 in - - ()
Sea Level Pressure  
Sea Level Pressure 29.94 in    
Wind  
Wind Speed 3 mph (NNE)    
Max Wind Speed 8 mph    
Max Gust Speed -    
Visibility 10 miles    
Events      
Averages and records for this station are not official NWS values.
T = Trace of Precipitation, MM = Missing Value Source: NWS Daily Summary

Daily Weather History Graph

Daily Weather History Graph

Search for Another Location

Airport or City:

Trip Planner

Search our weather history database for the weather conditions in past years. The results will help you decide how hot, cold, wet, or windy it might be!

Date:

Astronomy

Jan. 03, 2014 Rise Set
Actual Time 7:33 AM MST 5:32 PM MST
Civil Twilight 7:05 AM MST 6:00 PM MST
Nautical Twilight 6:34 AM MST 6:31 PM MST
Astronomical Twilight 6:04 AM MST 7:01 PM MST
Moon 9:10 AM MST (1/3) 8:36 PM MST (1/3)
Length of Visible Light 10h 54m
Length of Day
9h 59m
Waxing Crescent, 8% of the Moon is Illuminated
Jan 3
Waxing Crescent
Jan 7
First Quarter
Jan 15
Full
Jan 23
Last Quarter
Jan 30
New

Hourly Weather History & Observations

Time (MST) Temp. Dew Point Humidity Pressure Visibility Wind Dir Wind Speed Gust Speed Precip Events Conditions
12:53 AM 57.0 °F 21.9 °F 26% 29.99 in 10.0 mi NE 3.5 mph - N/A   Clear
1:53 AM 57.0 °F 21.9 °F 26% 29.99 in 10.0 mi ENE 4.6 mph - N/A   Clear
2:53 AM 55.9 °F 23.0 °F 28% 29.99 in 10.0 mi NNE 5.8 mph - N/A   Clear
3:53 AM 54.0 °F 23.0 °F 30% 29.99 in 10.0 mi North 3.5 mph - N/A   Clear
4:53 AM 51.1 °F 24.1 °F 35% 29.98 in 10.0 mi North 3.5 mph - N/A   Clear
5:53 AM 53.1 °F 23.0 °F 31% 29.97 in 10.0 mi NNE 8.1 mph - N/A   Clear
6:53 AM 52.0 °F 24.1 °F 34% 29.99 in 10.0 mi NNE 6.9 mph - N/A   Clear
7:53 AM 53.1 °F 24.1 °F 32% 29.99 in 10.0 mi NE 6.9 mph - N/A   Clear
8:53 AM 55.0 °F 25.0 °F 31% 30.01 in 10.0 mi NNE 5.8 mph - N/A   Clear
9:53 AM 60.1 °F 27.0 °F 28% 30.01 in 10.0 mi North 3.5 mph - N/A   Clear
10:53 AM 63.0 °F 28.0 °F 27% 30.00 in 10.0 mi Calm Calm - N/A   Clear
11:53 AM 64.9 °F 28.0 °F 25% 29.97 in 10.0 mi SSW 3.5 mph - N/A   Clear
12:53 PM 66.9 °F 26.1 °F 21% 29.94 in 10.0 mi Calm Calm - N/A   Clear
1:53 PM 69.1 °F 25.0 °F 19% 29.90 in 10.0 mi Calm Calm - N/A   Clear
2:53 PM 70.0 °F 25.0 °F 18% 29.88 in 10.0 mi Calm Calm - N/A   Clear
3:53 PM 71.1 °F 24.1 °F 17% 29.87 in 10.0 mi Calm Calm - N/A   Clear
4:53 PM 68.0 °F 27.0 °F 21% 29.87 in 10.0 mi SW 5.8 mph - N/A   Clear
5:53 PM 64.0 °F 28.0 °F 26% 29.87 in 10.0 mi Calm Calm - N/A   Clear
6:53 PM 61.0 °F 30.0 °F 31% 29.88 in 10.0 mi Calm Calm - N/A   Clear
7:53 PM 53.1 °F 33.1 °F 47% 29.89 in 10.0 mi Calm Calm - N/A   Clear
8:53 PM 52.0 °F 32.0 °F 47% 29.90 in 10.0 mi Calm Calm - N/A   Clear
9:53 PM 51.1 °F 32.0 °F 48% 29.90 in 10.0 mi Calm Calm - N/A   Clear
10:53 PM 48.9 °F 32.0 °F 52% 29.91 in 10.0 mi Calm Calm - N/A   Clear
11:53 PM 48.9 °F 32.0 °F 52% 29.91 in 10.0 mi Calm Calm - N/A   Clear